[[[{"header":{"parameterUnit":"kt","parameterCategory":2,"dx":1,"dy":1,"la1":30.253999710083008,"la2":30.299108505249023,"lo1":-89.0895004272461,"lo2":-89.04439544677734,"nx":28,"ny":28,"refTime":"2022-10-14T21:00:00:Z","depth":0,"parameterNumber":1,"parameterNumberName":"U-component_of_WINDS"},"data":[-3.8968,-3.909,-3.9133,-3.9293,-3.9358,-3.9475,-3.9531,-3.9607,-3.968,-3.9825,-3.9917,-3.9974,-4.0064,-4.0185,-4.0288,-4.0311,-4.0352,-4.0364,-4.0389,-4.0294,-4.0284,-4.0274,-4.0247,-4.0372,-4.0373,-4.0481,-4.0482,-4.0483,-3.8895,-3.896,-3.9057,-3.9179,-3.9263,-3.9277,-3.9376,-3.9446,-3.9551,-3.9641,-3.9733,-3.9866,-3.9977,-4.0065,-4.0179,-4.0239,-4.0253,-4.0267,-4.0263,-4.0277,-4.0177,-4.0148,-4.0254,-4.0254,-4.0254,-4.0254,-4.0254,-4.0254,-3.8773,-3.8844,-3.8943,-3.9049,-3.9122,-3.9205,-3.9281,-3.9348,-3.9445,-3.9568,-3.9601,-3.9721,-3.9821,-3.998,-4.0044,-4.014,-4.0132,-4.0162,-4.0169,-4.0175,-4.0176,-4.0013,-4.0162,-4.0162,-4.0161,-4.0161,-4.0161,0,-3.8696,-3.8727,-3.8822,-3.8931,-3.9011,-3.9099,-3.9188,-3.9237,-3.9317,-3.9394,-3.9509,-3.9582,-3.9728,-3.9842,-3.9959,-4.002,-4.0043,-4.0051,-4.0071,-4.0056,-4.0027,-4.0043,-3.9878,-4.0046,-4.0045,-4.0044,-4.0044,-4.0043,-3.8576,-3.8655,-3.8779,-3.884,-3.8899,-3.8998,-3.9066,-3.9131,-3.9201,-3.932,-3.9382,-3.9496,-3.9591,-3.9769,-3.9848,-3.9957,-3.9969,-4.0028,-3.9986,-3.9968,-3.997,-3.9964,-3.9973,-4.0035,-4.0036,-4.0037,-4.0038,0,-3.8504,-3.8573,-3.8709,-3.8824,-3.8856,-3.8936,-3.9035,-3.9111,-3.9168,-3.928,-3.931,-3.9401,-3.9513,-3.9583,-3.9725,-3.9759,-3.9893,-3.9903,-3.9859,-3.9865,-3.9924,-3.9918,-4.0108,-4.0136,-4.0007,-4.0008,-4.0009,0,-3.8428,-3.853,-3.8626,-3.8702,-3.8817,-3.8879,-3.8992,-3.9052,-3.9138,-3.9227,-3.9264,-3.9346,-3.9423,-3.9516,-3.9566,-3.9688,-3.9715,-3.9748,-3.9759,-3.9744,-3.974,-3.9782,-3.9775,-3.9783,-3.9782,-3.9782,-3.9781,0,-3.8307,-3.8479,-3.8602,-3.8652,-3.8785,-3.8842,-3.89,-3.8997,-3.9063,-3.9161,-3.9205,-3.9314,-3.9374,-3.9459,-3.952,-3.9489,-3.9672,-3.9642,-3.9705,-3.9704,-3.9741,-3.9738,-3.9889,-3.9779,-3.9779,-3.9779,-3.9778,0,-3.8256,-3.8352,-3.852,-3.8632,-3.8674,-3.8756,-3.8867,-3.8953,-3.9052,-3.9088,-3.9165,-3.9198,-3.931,-3.9275,-3.9432,-3.9373,-3.943,-3.9472,-3.9478,-3.9491,-3.9449,-3.9524,-3.9662,-3.9679,-3.9505,-3.9503,-3.9501,0,-3.8099,-3.8287,-3.8341,-3.85,-3.8596,-3.863,-3.8722,-3.8808,-3.8864,-3.8954,-3.9016,-3.9119,-3.9107,-3.9149,-3.9218,-3.9286,-3.9362,-3.9278,-3.9408,-3.9412,-3.938,-3.9508,-3.951,-3.9624,-3.9473,-3.9476,-3.9478,0,-3.7986,-3.8146,-3.817,-3.823,-3.8353,-3.8434,-3.854,-3.8655,-3.8712,-3.8806,-3.8896,-3.9043,-3.9041,-3.9109,-3.9147,-3.9215,-3.9313,-3.9203,-3.9206,-3.9219,-3.9465,-3.9466,-3.9485,-3.9323,-3.9327,-3.933,-3.9456,0,-3.7892,-3.7994,-3.8064,-3.8193,-3.8267,-3.837,-3.8442,-3.851,-3.8539,-3.8594,-3.8729,-3.8819,-3.8937,-3.8977,-3.9005,-3.9138,-3.9127,-3.9122,-3.9092,-3.9175,-3.9219,-3.9236,-3.9021,-3.9021,-3.902,-3.902,0,0,-3.7724,-3.7872,-3.7928,-3.8032,-3.8097,-3.813,-3.8234,-3.8301,-3.8437,-3.8482,-3.8466,-3.8685,-3.8758,-3.8914,-3.8946,-3.8994,-3.9025,-3.8992,-3.9135,-3.9148,-3.9159,-3.9204,-3.9222,-3.9019,-3.9019,-3.9019,-3.9019,0,-3.7704,-3.7776,-3.7878,-3.795,-3.8058,-3.8112,-3.8136,-3.825,-3.829,-3.8422,-3.8448,-3.8537,-3.8711,-3.8785,-3.8846,-3.8976,-3.899,-3.9007,-3.9052,-3.9129,-3.9142,-3.9153,-3.92,-3.9216,-3.9018,-3.9018,-3.9018,0,-3.7604,-3.7687,-3.7744,-3.7893,-3.7964,-3.8063,-3.8048,-3.8153,-3.8227,-3.8258,-3.8388,-3.8447,-3.8553,-3.8691,-3.8756,-3.8743,-3.8953,-3.89,-3.8904,-3.8913,-3.8991,-3.9006,-3.902,-3.8838,-3.8837,-3.8836,0,0,-3.7577,-3.7673,-3.7781,-3.7894,-3.7937,-3.8018,-3.8077,-3.8111,-3.8204,-3.8242,-3.8318,-3.8408,-3.851,-3.8575,-3.8675,-3.8816,-3.8843,-3.8874,-3.8883,-3.889,-3.8901,-3.8981,-3.8997,-3.8832,-3.8832,-3.8832,0,0,-3.7564,-3.7694,-3.7706,-3.7845,-3.7932,-3.8047,-3.8113,-3.8131,-3.8227,-3.8223,-3.8286,-3.8313,-3.8443,-3.8501,-3.8445,-3.8665,-3.8633,-3.8648,-3.8622,-3.8634,-3.8642,-3.8625,-3.8442,0,0,0,0,0,-3.758,-3.7678,-3.7687,-3.7721,-3.791,-3.8042,-3.8067,-3.812,-3.8097,-3.8148,-3.8215,-3.8226,-3.8484,-3.8436,-3.8469,-3.853,-3.8787,-3.8795,-3.8802,-3.8803,-3.8814,-3.8824,0,0,0,0,0,0,-3.7594,-3.7635,-3.7685,-3.7803,-3.7846,-3.8039,-3.8011,-3.8028,-3.8093,-3.8093,-3.8212,-3.8229,-3.8278,-3.8422,-3.8452,-3.8508,-3.8433,-3.879,-3.8797,-3.8803,-3.8807,-3.8816,-3.8824,0,0,0,0,0,-3.7605,-3.7638,-3.7927,-3.7802,-3.7839,-3.7934,-3.8007,-3.8022,-3.8073,-3.8176,-3.8193,-3.8107,-3.8278,-3.8307,-3.844,-3.8494,-3.8413,-3.8424,-3.8794,-3.88,-3.8805,-3.8811,0,0,0,0,0,0,-3.7613,-3.7653,-3.7935,-3.7949,-3.7768,-3.7924,-3.795,-3.8016,-3.8153,-3.817,-3.8073,-3.8071,-3.828,-3.8301,-3.8323,-3.8486,-3.8397,-3.8408,-3.8414,-3.8799,-3.8803,-3.8807,0,0,0,0,0,0,-3.7635,-3.7664,-3.7942,-3.7897,-3.7906,-3.7915,-3.7938,-3.806,-3.8154,-3.8042,-3.8045,-3.8071,-3.8247,-3.8298,-3.8315,-3.8502,-3.8384,-3.8395,-3.8402,-3.8407,-3.8802,-3.8805,0,0,0,0,0,0,-3.7648,-3.7673,-3.7894,-3.79,-3.7908,-3.8063,-3.8023,-3.8214,-3.8114,-3.8036,-3.8106,-3.8103,-3.8244,-3.8262,-3.831,-3.8489,-3.8499,-3.8385,-3.8392,-3.8397,-3.84,0,0,0,0,0,0,0,-3.7659,-3.7481,-3.7855,-3.7903,-3.791,-3.8073,-3.8077,-3.808,-3.8113,-3.811,-3.8107,-3.8104,-3.8325,-3.8336,-3.8348,-3.8479,0,0,-3.8384,-3.8389,0,0,0,0,0,0,0,0,-3.7472,-3.7479,-3.7856,-3.7859,-3.7861,-3.8073,-3.8076,-3.8079,-3.8112,-3.811,-3.8108,-3.8105,-3.8328,-3.8337,-3.8347,0,0,0,0,0,0,0,0,0,0,0,0,0,0,0,-3.7856,-3.7859,0,-3.8074,-3.8076,-3.8079,-3.8112,-3.811,-3.8108,-3.8106,-3.8331,-3.8338,-3.8346,0,0,0,0,0,0,0,0,0,0,0,0,0,0,0,0,0,0,0,0,0,0,0,0,0,0,0,0,0,0,0,0,0,0,0,0,0,0,0,0,0,0,0,0,0,0,0,0,0,0,0,0,0,0,0,0,0,0,0,0,0,0,0,0,0,0,0,0,0]}],[{"header":{"parameterUnit":"kt","parameterCategory":2,"dx":1,"dy":1,"la1":30.253999710083008,"la2":30.299108505249023,"lo1":-89.0895004272461,"lo2":-89.04439544677734,"nx":28,"ny":28,"refTime":"2022-10-14T21:00:00:Z","depth":0,"parameterNumber":2,"parameterNumberName":"V-component_of_WINDS"},"data":[5.1174,5.139,5.1443,5.1713,5.1806,5.2,5.2086,5.2203,5.2309,5.2545,5.2691,5.2765,5.289,5.3076,5.3235,5.3265,5.3329,5.3368,5.3396,5.3174,5.3147,5.3121,5.3074,5.3381,5.3381,5.3618,5.362,5.3622,5.101,5.1104,5.1262,5.1451,5.1588,5.1582,5.1732,5.1846,5.2019,5.215,5.2296,5.2508,5.2682,5.2796,5.2972,5.3073,5.3081,5.3117,5.3111,5.3131,5.2896,5.2846,5.3109,5.3109,5.3109,5.3109,5.3109,5.3109,5.0725,5.0852,5.0997,5.117,5.1279,5.1405,5.1535,5.1623,5.1778,5.1968,5.1999,5.2195,5.2336,5.2572,5.2664,5.2818,5.2786,5.2842,5.2857,5.287,5.2879,5.2534,5.285,5.2849,5.2848,5.2848,5.2848,0,5.0534,5.0569,5.0724,5.0895,5.1023,5.116,5.1295,5.1376,5.1467,5.1591,5.1775,5.1889,5.2114,5.2292,5.2467,5.2551,5.2557,5.2562,5.2602,5.259,5.2559,5.258,5.2196,5.2552,5.255,5.2548,5.2547,5.2546,5.0252,5.0393,5.0569,5.0671,5.0757,5.092,5.1027,5.1097,5.1208,5.1382,5.1491,5.1669,5.1816,5.21,5.2199,5.2367,5.2372,5.2503,5.2397,5.2381,5.2376,5.2367,5.2383,5.2522,5.2525,5.2527,5.2529,0,5.0088,5.0173,5.0408,5.0568,5.0613,5.0757,5.0894,5.1023,5.1093,5.1281,5.1328,5.1439,5.1617,5.1696,5.1914,5.1949,5.2189,5.2188,5.2142,5.2146,5.2273,5.226,5.2667,5.2724,5.2405,5.2408,5.241,0,4.9881,5.0064,5.0179,5.0311,5.0516,5.0581,5.0782,5.0863,5.0984,5.1132,5.1152,5.129,5.1369,5.1518,5.1571,5.178,5.1821,5.1861,5.1873,5.186,5.1855,5.1919,5.1905,5.1892,5.189,5.1888,5.1886,0,4.9617,4.9892,5.0107,5.0183,5.0371,5.047,5.0553,5.0689,5.0793,5.094,5.1009,5.1175,5.1266,5.1395,5.1461,5.1386,5.1718,5.1629,5.1759,5.1758,5.1828,5.1823,5.2163,5.1884,5.1883,5.1882,5.1881,0,4.9463,4.9612,4.991,5.0067,5.0137,5.0277,5.0447,5.0585,5.0727,5.077,5.0886,5.0908,5.1096,5.1002,5.1263,5.1147,5.1236,5.1291,5.1302,5.1324,5.1217,5.14,5.1714,5.1751,5.1344,5.134,5.1336,0,4.9139,4.9462,4.952,4.9801,4.9961,4.9973,5.0131,5.0255,5.0325,5.0471,5.0547,5.0711,5.0658,5.072,5.0839,5.0924,5.1074,5.0906,5.1114,5.1121,5.1078,5.1369,5.1396,5.1637,5.1279,5.1285,5.1289,0,4.8898,4.9124,4.917,4.926,4.9436,4.9569,4.975,4.9928,5.0021,5.0158,5.0312,5.0543,5.0513,5.0615,5.0649,5.0769,5.0974,5.072,5.0724,5.0764,5.1256,5.1283,5.1323,5.0971,5.0978,5.0984,5.1245,0,4.8648,4.882,4.8947,4.9142,4.9258,4.9437,4.9521,4.9631,4.9653,4.9723,4.9948,5.0069,5.0248,5.0313,5.0335,5.0582,5.0553,5.0518,5.0432,5.0622,5.071,5.0746,5.0295,5.0293,5.0291,5.029,0,0,4.8317,4.8564,4.8621,4.8799,4.89,4.8909,4.9093,4.9192,4.939,4.946,4.9413,4.9756,4.9856,5.0121,5.0186,5.0258,5.031,5.0239,5.0531,5.0557,5.0582,5.0675,5.0711,5.0286,5.0286,5.0285,5.0285,0,4.8243,4.8347,4.8529,4.8634,4.8792,4.8856,4.89,4.9057,4.9109,4.933,4.9333,4.9477,4.9748,4.9855,4.9944,5.021,5.0203,5.0258,5.0374,5.051,5.0539,5.0565,5.0662,5.0695,5.028,5.0281,5.0281,0,4.8022,4.8138,4.8235,4.8463,4.8566,4.8729,4.8661,4.8836,4.8957,4.8955,4.9173,4.9251,4.9399,4.9638,4.9747,4.9707,5.0102,4.9991,5.0004,5.0018,5.0153,5.0188,5.0218,4.9814,4.9812,4.981,0,0,4.7946,4.8106,4.8251,4.8454,4.8518,4.8616,4.871,4.8742,4.8876,4.8929,4.9029,4.9158,4.9317,4.942,4.9572,4.9822,4.9858,4.993,4.9952,4.997,4.9993,5.0133,5.0167,4.9802,4.9802,4.9802,0,0,4.791,4.8087,4.8086,4.8332,4.846,4.8615,4.8735,4.8737,4.8883,4.8872,4.8931,4.8968,4.9192,4.9268,4.916,4.9543,4.9457,4.9484,4.9486,4.9515,4.9536,4.9514,4.9105,0,0,0,0,0,4.7877,4.8065,4.8062,4.8116,4.8404,4.8616,4.8654,4.8708,4.8647,4.8742,4.8825,4.8811,4.9222,4.9128,4.918,4.9299,4.9707,4.9724,4.974,4.9801,4.983,4.9855,0,0,0,0,0,0,4.7899,4.7964,4.8057,4.8219,4.8285,4.861,4.8518,4.8539,4.8638,4.8633,4.8795,4.8816,4.8866,4.9105,4.9151,4.9264,4.909,4.9714,4.9728,4.9741,4.9811,4.9835,4.9856,0,0,0,0,0,4.7916,4.7969,4.8417,4.8217,4.8274,4.8392,4.8512,4.8528,4.8606,4.8735,4.8755,4.8638,4.8867,4.8909,4.9133,4.9242,4.9059,4.9075,4.9723,4.9734,4.9745,4.9823,0,0,0,0,0,0,4.7929,4.7985,4.8429,4.8448,4.815,4.8375,4.8412,4.8518,4.8703,4.8725,4.858,4.8573,4.8871,4.8903,4.8935,4.9231,4.9033,4.905,4.9061,4.9732,4.9741,4.9748,0,0,0,0,0,0,4.7957,4.8001,4.8439,4.8352,4.8361,4.8359,4.8392,4.8588,4.8705,4.8537,4.8537,4.8575,4.8822,4.8899,4.8924,4.9229,4.9014,4.903,4.9041,4.9048,4.9739,4.9746,0,0,0,0,0,0,4.7976,4.8015,4.8347,4.8354,4.8363,4.8583,4.8533,4.8824,4.8632,4.8529,4.8616,4.8608,4.8819,4.8845,4.8917,4.9211,4.9224,4.9014,4.9025,4.9033,4.9038,0,0,0,0,0,0,0,4.7992,4.7725,4.8315,4.8357,4.8364,4.8627,4.8632,4.8637,4.863,4.8624,4.8617,4.8611,4.892,4.8938,4.8956,4.9196,0,0,4.9012,4.902,0,0,0,0,0,0,0,0,4.771,4.7721,4.8316,4.832,4.8324,4.8628,4.8632,4.8636,4.8629,4.8624,4.8619,4.8614,4.8925,4.8939,4.8954,0,0,0,0,0,0,0,0,0,0,0,0,0,0,0,4.8316,4.8319,0,4.8628,4.8632,4.8635,4.8628,4.8624,4.862,4.8616,4.8929,4.8941,4.8953,0,0,0,0,0,0,0,0,0,0,0,0,0,0,0,0,0,0,0,0,0,0,0,0,0,0,0,0,0,0,0,0,0,0,0,0,0,0,0,0,0,0,0,0,0,0,0,0,0,0,0,0,0,0,0,0,0,0,0,0,0,0,0,0,0,0,0,0,0]}]]]